Regional Weather Roundup
Issued by NWS Mt. Holly, NJ

Home | Current Version | Previous Version | Text Only | Print | Product List | Glossary On
Versions: 1 2 3 4 5 6 7 8 9 10 11 12 13 14 15 16 17 18 19 20 21 22 23 24 25 26 27
000
ASUS41 KPHI 031012
RWRPHI

REGIONAL WEATHER ROUNDUP
NATIONAL WEATHER SERVICE MOUNT HOLLY NJ
600 AM EDT TUE MAY 03 2016

NOTE:  "FAIR" INDICATES FEW OR NO CLOUDS BELOW 12,000 FEET WITH NO
SIGNIFICANT WEATHER AND/OR OBSTRUCTIONS TO VISIBILITY.

 * = STATION DOES NOT REPORT PRECIPITATION (E.G. RAIN, SNOW, ETC.)
        OR FOG.

NJZ015>026-031100-
SOUTHERN NEW JERSEY

CITY           SKY/WX    TMP DP  RH WIND       PRES   REMARKS
POMONA         CLOUDY    54  53  97 E6        29.81S
WILDWOOD*      CLOUDY   N/A N/A N/A S9        29.80F
MILLVILLE      LGT RAIN  56  55  97 E5        29.81S
WRIGHTSTOWN    LGT RAIN  54  54  98 NE7       29.82R FOG
MOUNT HOLLY    RAIN      54  54 100 NE5       29.84R FOG
TRENTON        LGT RAIN  55  53  93 E6        29.84S

$$
NJZ001>014-031100-
NORTHERN NEW JERSEY

CITY           SKY/WX    TMP DP  RH WIND       PRES   REMARKS
SUSSEX         LGT RAIN  51  48  89 N5        29.88R
ANDOVER*         N/A     51  50  96 NE5       29.85S
MORRISTOWN     RAIN      54  52  94 CALM      29.87S
NEWARK         RAIN      54  54 100 E7        29.86R FOG
TETERBORO      RAIN      53  49  86 E6        29.87R FOG
CALDWELL       LGT RAIN  53  50  89 E9        29.87S
SOMERVILLE     LGT RAIN  54  53  97 CALM      29.83F FOG
ALLAIRE*       LGT RAIN  52  52 100 NE7       29.87R FOG
TOMS RIVER*    CLOUDY    54  50  87 NE7       29.85R

$$
PAZ043-044-047-054-055-060>062-066>071-031100-
EASTERN PENNSYLVANIA

CITY           SKY/WX    TMP DP  RH WIND       PRES   REMARKS
PHILADELPHIA   LGT RAIN  57  53  86 NE5       29.83S
NORTH PHILA    RAIN      57  55  93 E7        29.85S FOG
DOYLESTOWN     LGT RAIN  53  53 100 CALM      29.83R
QUAKERTOWN*    CLOUDY    54  54 100 E5        29.84S
PERKASIE*      CLOUDY    54  54 100 NE7       29.85R
POTTSTOWN      CLOUDY    54  54 100 E3        29.84S
LANCASTER      LGT RAIN  56  55  97 E10       29.81F
COATESVILLE    DRIZZLE   55  55 100 E10       29.82F
READING        LGT RAIN  53  51  93 NE9       29.82S
ALLENTOWN      CLOUDY    53  50  89 NE6       29.85S
MOUNT POCONO   LGT RAIN  47  45  93 E6        29.85S
HAZLETON       RAIN      46  46 100 CALM      29.89R
LEHIGHTON      LGT RAIN  52  50  93 CALM      29.87R
WILKES BARRE   LGT RAIN  48  46  93 N3        29.87R FOG

$$
DEZALL-MDZ008-012-015-019-020-031100-
DELAWARE AND EASTERN MARYLAND

CITY           SKY/WX    TMP DP  RH WIND       PRES   REMARKS
WILMINGTON     LGT RAIN  56  54  93 E9        29.81F
GEORGETOWN     LGT RAIN  64  63  96 S8        29.79F
EASTON         RAIN     N/A N/A N/A CALM      29.82S
ABERDEEN       LGT RAIN  57  55  94 NE7       29.80  FOG
PATUXENT       LGT RAIN  65  62  90 SW5       29.79S
OCEAN CITY     RAIN      58  57  97 CALM      29.81F FOG
WALLOPS ISLAND RAIN      65  63  93 SW3       29.80F
CAMBRIDGE      CLOUDY    63  63 100 CALM      29.78F
SALISBURY      RAIN      64  63  96 SW6       29.80S

$$
PAZ001-021-NYZ056-072-MDZ011-DCZ001-031100-
OTHER NEARBY LOCATIONS

CITY           SKY/WX    TMP DP  RH WIND       PRES   REMARKS
HARRISBURG     LGT RAIN  56  53  90 NE8       29.81S FOG
STATE COLLEGE  CLOUDY    48  46  93 NE7       29.85S
WILLIAMSPORT   CLOUDY    49  45  86 W5        29.87S
BINGHAMTON     CLOUDY    41  40  96 N7        29.87S
NEW YORK CITY  RAIN      51  50  96 E5        29.89S FOG
BALTIMORE      CLOUDY    59  58  96 CALM      29.78F FOG
WASHINGTON DC  CLOUDY    63  62  97 CALM      29.79F FOG

$$




USA.gov is the U.S. government's official web portal to all federal, state and local government web resources and services.